Time,TemperatureF,DewpointF,PressureIn,WindDirection,WindDirectionDegrees,WindSpeedMPH,WindSpeedGustMPH,Humidity,HourlyPrecipIn,Conditions,Clouds,dailyrainin,SoftwareType,DateUTC
2013-11-25 00:00:00,19.6,13.6,30.40,South,188,8.0,8.0,77,0.00,,,0.00,Wunderground v.1.15,2013-11-25 06:00:00,
2013-11-25 00:10:00,19.5,13.5,30.40,SSW,200,7.0,7.0,77,0.00,,,0.00,Wunderground v.1.15,2013-11-25 06:10:00,
2013-11-25 00:15:00,19.5,13.5,30.39,SSW,198,7.0,7.0,77,0.00,,,0.00,Wunderground v.1.15,2013-11-25 06:15:00,
2013-11-25 00:20:00,19.5,13.5,30.39,SSW,195,7.0,7.0,77,0.00,,,0.00,Wunderground v.1.15,2013-11-25 06:20:00,
2013-11-25 00:25:00,19.7,13.7,30.38,SSW,194,9.0,10.0,77,0.00,,,0.00,Wunderground v.1.15,2013-11-25 06:25:00,
2013-11-25 00:35:00,19.8,13.8,30.38,South,190,9.0,12.0,77,0.00,,,0.00,Wunderground v.1.15,2013-11-25 06:35:00,
2013-11-25 00:40:00,19.8,13.8,30.37,SSW,203,9.0,9.0,77,0.00,,,0.00,Wunderground v.1.15,2013-11-25 06:40:00,
2013-11-25 00:45:00,19.9,13.9,30.37,SW,214,9.0,9.0,77,0.00,,,0.00,Wunderground v.1.15,2013-11-25 06:45:00,
2013-11-25 00:50:00,20.0,13.9,30.37,SSW,209,10.0,13.0,77,0.00,,,0.00,Wunderground v.1.15,2013-11-25 06:50:00,
2013-11-25 01:05:00,20.0,13.9,30.36,SSW,196,11.0,14.0,77,0.00,,,0.00,Wunderground v.1.15,2013-11-25 07:05:00,
2013-11-25 01:10:00,20.0,14.2,30.35,SSW,205,11.0,11.0,78,0.00,,,0.00,Wunderground v.1.15,2013-11-25 07:10:00,
2013-11-25 01:20:00,20.1,14.0,30.35,SSW,202,11.0,14.0,77,0.00,,,0.00,Wunderground v.1.15,2013-11-25 07:20:00,
2013-11-25 01:25:00,20.2,14.1,30.35,SW,219,12.0,14.0,77,0.00,,,0.00,Wunderground v.1.15,2013-11-25 07:25:00,
2013-11-25 01:30:00,20.3,14.2,30.35,SSW,202,12.0,14.0,77,0.00,,,0.00,Wunderground v.1.15,2013-11-25 07:30:00,
2013-11-25 01:40:00,20.4,14.3,30.35,SSW,196,12.0,19.0,77,0.00,,,0.00,Wunderground v.1.15,2013-11-25 07:40:00,
2013-11-25 01:45:00,20.4,14.3,30.35,SSW,194,13.0,19.0,77,0.00,,,0.00,Wunderground v.1.15,2013-11-25 07:45:00,
2013-11-25 01:50:00,20.4,14.3,30.35,South,190,12.0,12.0,77,0.00,,,0.00,Wunderground v.1.15,2013-11-25 07:50:00,
2013-11-25 02:00:00,20.6,14.2,30.34,SSW,202,13.0,13.0,76,0.00,,,0.00,Wunderground v.1.15,2013-11-25 08:00:00,
2013-11-25 02:05:00,20.7,14.3,30.34,SSW,198,14.0,16.0,76,0.00,,,0.00,Wunderground v.1.15,2013-11-25 08:05:00,
2013-11-25 02:10:00,20.8,14.4,30.35,SSW,194,12.0,12.0,76,0.00,,,0.00,Wunderground v.1.15,2013-11-25 08:10:00,
2013-11-25 02:15:00,20.9,14.5,30.35,South,176,11.0,13.0,76,0.00,,,0.00,Wunderground v.1.15,2013-11-25 08:15:00,
2013-11-25 02:20:00,20.9,14.2,30.34,South,190,12.0,15.0,75,0.00,,,0.00,Wunderground v.1.15,2013-11-25 08:20:00,
2013-11-25 02:25:00,21.0,14.3,30.34,SSW,200,11.0,15.0,75,0.00,,,0.00,Wunderground v.1.15,2013-11-25 08:25:00,
2013-11-25 02:35:00,21.0,14.3,30.34,SW,219,11.0,16.0,75,0.00,,,0.00,Wunderground v.1.15,2013-11-25 08:35:00,
2013-11-25 02:40:00,21.1,14.7,30.34,SSW,194,11.0,11.0,76,0.00,,,0.00,Wunderground v.1.15,2013-11-25 08:40:00,
2013-11-25 02:45:00,21.1,14.4,30.34,SSW,194,10.0,12.0,75,0.00,,,0.00,Wunderground v.1.15,2013-11-25 08:45:00,
2013-11-25 02:55:00,21.2,14.8,30.33,South,190,10.0,10.0,76,0.00,,,0.00,Wunderground v.1.15,2013-11-25 08:55:00,
2013-11-25 03:00:00,21.2,14.8,30.33,South,191,9.0,9.0,76,0.00,,,0.00,Wunderground v.1.15,2013-11-25 09:00:00,
2013-11-25 03:05:00,21.3,14.6,30.32,South,191,9.0,11.0,75,0.00,,,0.00,Wunderground v.1.15,2013-11-25 09:05:00,
2013-11-25 03:10:00,21.4,14.7,30.32,SSW,212,10.0,10.0,75,0.00,,,0.00,Wunderground v.1.15,2013-11-25 09:10:00,
2013-11-25 03:20:00,21.7,15.0,30.32,South,184,9.0,9.0,75,0.00,,,0.00,Wunderground v.1.15,2013-11-25 09:20:00,
2013-11-25 03:25:00,21.8,15.1,30.32,South,185,9.0,9.0,75,0.00,,,0.00,Wunderground v.1.15,2013-11-25 09:25:00,
2013-11-25 03:30:00,21.9,15.2,30.32,SSW,204,9.0,9.0,75,0.00,,,0.00,Wunderground v.1.15,2013-11-25 09:30:00,
2013-11-25 03:35:00,22.0,15.3,30.30,SSW,203,9.0,13.0,75,0.00,,,0.00,Wunderground v.1.15,2013-11-25 09:35:00,
2013-11-25 03:45:00,22.2,15.2,30.30,SSW,198,10.0,16.0,74,0.00,,,0.00,Wunderground v.1.15,2013-11-25 09:45:00,
2013-11-25 03:55:00,22.5,15.5,30.30,South,187,10.0,11.0,74,0.00,,,0.00,Wunderground v.1.15,2013-11-25 09:55:00,
2013-11-25 04:00:00,22.6,15.6,30.29,South,191,10.0,11.0,74,0.00,,,0.00,Wunderground v.1.15,2013-11-25 10:00:00,
2013-11-25 04:05:00,22.7,15.7,30.29,SW,218,11.0,12.0,74,0.00,,,0.00,Wunderground v.1.15,2013-11-25 10:05:00,
2013-11-25 04:10:00,22.9,15.8,30.29,South,186,10.0,10.0,74,0.00,,,0.00,Wunderground v.1.15,2013-11-25 10:10:00,
2013-11-25 04:20:00,23.2,16.1,30.28,SSW,203,10.0,10.0,74,0.00,,,0.00,Wunderground v.1.15,2013-11-25 10:20:00,
2013-11-25 04:25:00,23.4,16.3,30.29,SSW,212,9.0,10.0,74,0.00,,,0.00,Wunderground v.1.15,2013-11-25 10:25:00,
2013-11-25 04:30:00,23.6,16.2,30.28,SSW,197,9.0,9.0,73,0.00,,,0.00,Wunderground v.1.15,2013-11-25 10:30:00,
2013-11-25 04:40:00,23.8,16.4,30.27,SSW,205,9.0,9.0,73,0.00,,,0.00,Wunderground v.1.15,2013-11-25 10:40:00,
2013-11-25 04:45:00,23.9,16.2,30.27,SW,234,10.0,10.0,72,0.00,,,0.00,Wunderground v.1.15,2013-11-25 10:45:00,
2013-11-25 04:50:00,24.0,16.3,30.27,SSW,196,10.0,13.0,72,0.00,,,0.00,Wunderground v.1.15,2013-11-25 10:50:00,
2013-11-25 04:55:00,24.2,16.5,30.27,South,177,10.0,13.0,72,0.00,,,0.00,Wunderground v.1.15,2013-11-25 10:55:00,
2013-11-25 05:00:00,24.4,16.3,30.27,SSW,211,11.0,11.0,71,0.00,,,0.00,Wunderground v.1.15,2013-11-25 11:00:00,
2013-11-25 05:05:00,24.5,16.4,30.27,SW,226,12.0,12.0,71,0.00,,,0.00,Wunderground v.1.15,2013-11-25 11:05:00,
2013-11-25 05:10:00,24.2,17.4,30.27,SW,219,12.0,16.0,75,0.00,,,0.00,Wunderground v.1.15,2013-11-25 11:10:00,
2013-11-25 05:20:00,23.4,19.0,30.26,WSW,249,13.0,13.0,83,0.00,,,0.00,Wunderground v.1.15,2013-11-25 11:20:00,
2013-11-25 05:25:00,23.3,19.5,30.26,SW,225,13.0,13.0,85,0.00,,,0.00,Wunderground v.1.15,2013-11-25 11:25:00,
2013-11-25 05:30:00,23.4,19.6,30.26,SSW,213,9.0,9.0,85,0.00,,,0.00,Wunderground v.1.15,2013-11-25 11:30:00,
2013-11-25 05:40:00,24.1,17.9,30.25,SSW,204,7.0,14.0,77,0.00,,,0.00,Wunderground v.1.15,2013-11-25 11:40:00,
2013-11-25 05:45:00,24.5,17.4,30.24,South,185,10.0,14.0,74,0.00,,,0.00,Wunderground v.1.15,2013-11-25 11:45:00,
2013-11-25 05:50:00,24.7,17.0,30.24,SSW,192,11.0,11.0,72,0.00,,,0.00,Wunderground v.1.15,2013-11-25 11:50:00,
2013-11-25 05:55:00,24.7,17.0,30.24,SSE,153,11.0,11.0,72,0.00,,,0.00,Wunderground v.1.15,2013-11-25 11:55:00,
2013-11-25 06:05:00,24.8,17.1,30.23,SSW,194,10.0,13.0,72,0.00,,,0.00,Wunderground v.1.15,2013-11-25 12:05:00,
2013-11-25 06:10:00,24.9,16.8,30.23,SSW,202,11.0,11.0,71,0.00,,,0.00,Wunderground v.1.15,2013-11-25 12:10:00,
2013-11-25 06:15:00,25.0,17.2,30.23,SW,222,12.0,14.0,72,0.00,,,0.00,Wunderground v.1.15,2013-11-25 12:15:00,
2013-11-25 06:20:00,25.0,16.9,30.22,SSW,202,11.0,13.0,71,0.00,,,0.00,Wunderground v.1.15,2013-11-25 12:20:00,
2013-11-25 06:30:00,25.2,17.1,30.22,South,185,11.0,11.0,71,0.00,,,0.00,Wunderground v.1.15,2013-11-25 12:30:00,
2013-11-25 06:35:00,25.2,17.1,30.21,SSW,194,11.0,11.0,71,0.00,,,0.00,Wunderground v.1.15,2013-11-25 12:35:00,
2013-11-25 06:40:00,25.3,16.9,30.22,SSW,209,12.0,12.0,70,0.00,,,0.00,Wunderground v.1.15,2013-11-25 12:40:00,
2013-11-25 06:45:00,25.3,16.9,30.22,SSW,193,12.0,16.0,70,0.00,,,0.00,Wunderground v.1.15,2013-11-25 12:45:00,
2013-11-25 06:50:00,25.3,16.9,30.21,SSW,197,13.0,13.0,70,0.00,,,0.00,Wunderground v.1.15,2013-11-25 12:50:00,
2013-11-25 06:55:00,25.4,17.0,30.21,South,190,12.0,13.0,70,0.00,,,0.00,Wunderground v.1.15,2013-11-25 12:55:00,
2013-11-25 07:05:00,25.4,16.6,30.22,SW,219,12.0,12.0,69,0.00,,,0.00,Wunderground v.1.15,2013-11-25 13:05:00,
2013-11-25 07:10:00,25.6,17.2,30.22,SSW,194,11.0,12.0,70,0.00,,,0.00,Wunderground v.1.15,2013-11-25 13:10:00,
2013-11-25 07:15:00,25.6,17.2,30.22,SSW,211,10.0,12.0,70,0.00,,,0.00,Wunderground v.1.15,2013-11-25 13:15:00,
2013-11-25 07:20:00,25.7,16.9,30.22,SSW,198,9.0,10.0,69,0.00,,,0.00,Wunderground v.1.15,2013-11-25 13:20:00,
2013-11-25 07:25:00,26.0,16.9,30.22,SSW,198,10.0,10.0,68,0.00,,,0.00,Wunderground v.1.15,2013-11-25 13:25:00,
2013-11-25 07:30:00,26.2,16.7,30.22,SW,223,11.0,18.0,67,0.00,,,0.00,Wunderground v.1.15,2013-11-25 13:30:00,
2013-11-25 07:40:00,26.6,16.8,30.22,West,269,11.0,11.0,66,0.00,,,0.00,Wunderground v.1.15,2013-11-25 13:40:00,
2013-11-25 07:45:00,26.6,16.4,30.22,South,183,11.0,13.0,65,0.00,,,0.00,Wunderground v.1.15,2013-11-25 13:45:00,
2013-11-25 07:50:00,26.7,16.5,30.21,SSW,196,11.0,11.0,65,0.00,,,0.00,Wunderground v.1.15,2013-11-25 13:50:00,
2013-11-25 07:55:00,26.8,16.2,30.21,SSW,196,12.0,12.0,64,0.00,,,0.00,Wunderground v.1.15,2013-11-25 13:55:00,
2013-11-25 08:00:00,26.9,16.0,30.21,SSW,209,12.0,19.0,63,0.00,,,0.00,Wunderground v.1.15,2013-11-25 14:00:00,
2013-11-25 08:10:00,27.1,16.5,30.20,SSW,213,13.0,13.0,64,0.00,,,0.00,Wunderground v.1.15,2013-11-25 14:10:00,
2013-11-25 08:15:00,27.2,16.3,30.20,SSW,209,13.0,13.0,63,0.00,,,0.00,Wunderground v.1.15,2013-11-25 14:15:00,
2013-11-25 08:20:00,27.3,16.7,30.20,SSW,205,14.0,14.0,64,0.00,,,0.00,Wunderground v.1.15,2013-11-25 14:20:00,
2013-11-25 08:30:00,27.4,16.8,30.20,SSW,209,13.0,15.0,64,0.00,,,0.00,Wunderground v.1.15,2013-11-25 14:30:00,
2013-11-25 08:35:00,27.5,16.9,30.20,SSW,207,12.0,15.0,64,0.00,,,0.00,Wunderground v.1.15,2013-11-25 14:35:00,
2013-11-25 08:40:00,27.5,16.9,30.20,SSW,200,11.0,16.0,64,0.00,,,0.00,Wunderground v.1.15,2013-11-25 14:40:00,
2013-11-25 08:45:00,27.5,17.3,30.20,SSW,213,13.0,18.0,65,0.00,,,0.00,Wunderground v.1.15,2013-11-25 14:45:00,
2013-11-25 08:55:00,27.7,17.1,30.20,SSW,212,14.0,14.0,64,0.00,,,0.00,Wunderground v.1.15,2013-11-25 14:55:00,
2013-11-25 09:00:00,27.8,17.2,30.20,WSW,240,14.0,16.0,64,0.00,,,0.00,Wunderground v.1.15,2013-11-25 15:00:00,
2013-11-25 09:05:00,27.8,17.2,30.20,SW,215,14.0,17.0,64,0.00,,,0.00,Wunderground v.1.15,2013-11-25 15:05:00,
2013-11-25 09:15:00,27.8,17.9,30.20,WSW,241,13.0,17.0,66,0.00,,,0.00,Wunderground v.1.15,2013-11-25 15:15:00,
2013-11-25 09:20:00,27.8,18.3,30.19,SW,232,13.0,13.0,67,0.00,,,0.00,Wunderground v.1.15,2013-11-25 15:20:00,
2013-11-25 09:25:00,27.7,18.8,30.19,SW,215,12.0,18.0,69,0.00,,,0.00,Wunderground v.1.15,2013-11-25 15:25:00,
2013-11-25 09:30:00,27.6,19.1,30.19,WSW,243,15.0,15.0,70,0.00,,,0.00,Wunderground v.1.15,2013-11-25 15:30:00,
2013-11-25 09:35:00,27.7,19.5,30.19,SW,219,16.0,16.0,71,0.00,,,0.00,Wunderground v.1.15,2013-11-25 15:35:00,
2013-11-25 09:45:00,27.2,20.9,30.19,WSW,255,15.0,17.0,77,0.00,,,0.00,Wunderground v.1.15,2013-11-25 15:45:00,
2013-11-25 09:50:00,27.2,21.5,30.19,SW,215,14.0,14.0,79,0.00,,,0.00,Wunderground v.1.15,2013-11-25 15:50:00,
2013-11-25 09:55:00,27.0,21.7,30.19,SSW,211,13.0,14.0,80,0.00,,,0.00,Wunderground v.1.15,2013-11-25 15:55:00,
2013-11-25 10:05:00,26.9,22.4,30.19,SW,223,11.0,11.0,83,0.00,,,0.00,Wunderground v.1.15,2013-11-25 16:05:00,
2013-11-25 10:10:00,26.9,22.4,30.19,West,263,12.0,12.0,83,0.00,,,0.00,Wunderground v.1.15,2013-11-25 16:10:00,
2013-11-25 10:15:00,27.1,22.6,30.19,SW,232,11.0,12.0,83,0.00,,,0.00,Wunderground v.1.15,2013-11-25 16:15:00,
2013-11-25 10:20:00,27.5,22.7,30.19,SW,232,11.0,12.0,82,0.00,,,0.00,Wunderground v.1.15,2013-11-25 16:20:00,
2013-11-25 10:30:00,27.8,23.0,30.19,SSW,209,11.0,13.0,82,0.00,,,0.00,Wunderground v.1.15,2013-11-25 16:30:00,
2013-11-25 10:35:00,27.5,23.3,30.19,WSW,240,12.0,15.0,84,0.00,,,0.00,Wunderground v.1.15,2013-11-25 16:35:00,
2013-11-25 10:40:00,27.2,23.8,30.18,West,259,13.0,14.0,87,0.00,,,0.00,Wunderground v.1.15,2013-11-25 16:40:00,
2013-11-25 10:45:00,27.2,24.1,30.18,SW,226,12.0,14.0,88,0.00,,,0.00,Wunderground v.1.15,2013-11-25 16:45:00,
2013-11-25 10:50:00,27.1,24.3,30.18,NNE,26,11.0,11.0,89,0.00,,,0.00,Wunderground v.1.15,2013-11-25 16:50:00,
2013-11-25 10:55:00,27.0,24.5,30.18,SW,228,10.0,15.0,90,0.00,,,0.00,Wunderground v.1.15,2013-11-25 16:55:00,
2013-11-25 11:05:00,26.8,24.8,30.18,WSW,238,12.0,14.0,92,0.00,,,0.00,Wunderground v.1.15,2013-11-25 17:05:00,
2013-11-25 11:10:00,26.5,24.8,30.17,SW,227,12.0,12.0,93,0.00,,,0.00,Wunderground v.1.15,2013-11-25 17:10:00,
2013-11-25 11:15:00,26.5,25.0,30.17,SSW,203,12.0,12.0,94,0.00,,,0.00,Wunderground v.1.15,2013-11-25 17:15:00,
2013-11-25 11:20:00,26.7,25.2,30.17,SSW,206,10.0,10.0,94,0.00,,,0.00,Wunderground v.1.15,2013-11-25 17:20:00,
2013-11-25 11:25:00,26.8,25.6,30.16,SSW,207,10.0,10.0,95,0.00,,,0.00,Wunderground v.1.15,2013-11-25 17:25:00,
2013-11-25 11:30:00,26.9,25.7,30.16,SW,224,11.0,12.0,95,0.00,,,0.00,Wunderground v.1.15,2013-11-25 17:30:00,
2013-11-25 11:40:00,26.9,25.7,30.16,SW,219,11.0,13.0,95,0.00,,,0.00,Wunderground v.1.15,2013-11-25 17:40:00,
2013-11-25 11:45:00,27.1,25.9,30.16,SW,226,11.0,13.0,95,0.00,,,0.00,Wunderground v.1.15,2013-11-25 17:45:00,
2013-11-25 11:50:00,27.2,26.0,30.15,SW,229,10.0,10.0,95,0.00,,,0.00,Wunderground v.1.15,2013-11-25 17:50:00,
2013-11-25 12:00:00,27.3,26.1,30.15,SSW,196,9.0,9.0,95,0.00,,,0.00,Wunderground v.1.15,2013-11-25 18:00:00,
2013-11-25 12:05:00,27.4,26.2,30.14,WSW,238,10.0,11.0,95,0.00,,,0.00,Wunderground v.1.15,2013-11-25 18:05:00,
2013-11-25 12:10:00,27.6,26.6,30.14,SW,229,10.0,10.0,96,0.00,,,0.00,Wunderground v.1.15,2013-11-25 18:10:00,
2013-11-25 12:15:00,27.8,26.6,30.14,West,271,11.0,11.0,95,0.00,,,0.00,Wunderground v.1.15,2013-11-25 18:15:00,
2013-11-25 12:20:00,27.7,26.7,30.14,SW,235,10.0,12.0,96,0.00,,,0.00,Wunderground v.1.15,2013-11-25 18:20:00,
2013-11-25 12:25:00,27.7,26.7,30.14,West,267,10.0,12.0,96,0.00,,,0.00,Wunderground v.1.15,2013-11-25 18:25:00,
2013-11-25 12:35:00,27.9,26.9,30.14,SW,221,11.0,12.0,96,0.00,,,0.00,Wunderground v.1.15,2013-11-25 18:35:00,
2013-11-25 12:40:00,27.9,26.9,30.14,WSW,257,9.0,13.0,96,0.00,,,0.00,Wunderground v.1.15,2013-11-25 18:40:00,
2013-11-25 12:45:00,27.9,26.7,30.14,SSW,211,10.0,13.0,95,0.00,,,0.00,Wunderground v.1.15,2013-11-25 18:45:00,
2013-11-25 12:50:00,27.9,26.7,30.14,SW,221,10.0,10.0,95,0.00,,,0.00,Wunderground v.1.15,2013-11-25 18:50:00,
2013-11-25 13:00:00,28.0,27.0,30.13,SW,231,10.0,10.0,96,0.00,,,0.00,Wunderground v.1.15,2013-11-25 19:00:00,
2013-11-25 13:05:00,28.1,27.1,30.13,SW,225,10.0,12.0,96,0.00,,,0.00,Wunderground v.1.15,2013-11-25 19:05:00,
2013-11-25 13:10:00,28.1,26.9,30.12,West,265,11.0,11.0,95,0.00,,,0.00,Wunderground v.1.15,2013-11-25 19:10:00,
2013-11-25 13:20:00,28.3,27.1,30.12,WSW,255,12.0,12.0,95,0.00,,,0.00,Wunderground v.1.15,2013-11-25 19:20:00,
2013-11-25 13:25:00,28.4,27.2,30.11,SW,223,11.0,12.0,95,0.00,,,0.00,Wunderground v.1.15,2013-11-25 19:25:00,
2013-11-25 13:30:00,28.5,27.3,30.11,SW,236,10.0,12.0,95,0.00,,,0.00,Wunderground v.1.15,2013-11-25 19:30:00,
2013-11-25 13:35:00,28.7,27.4,30.11,SW,224,11.0,12.0,95,0.00,,,0.00,Wunderground v.1.15,2013-11-25 19:35:00,
2013-11-25 13:45:00,28.9,27.4,30.12,SSW,212,9.0,15.0,94,0.00,,,0.00,Wunderground v.1.15,2013-11-25 19:45:00,
2013-11-25 13:50:00,29.1,27.6,30.12,SW,232,10.0,11.0,94,0.00,,,0.00,Wunderground v.1.15,2013-11-25 19:50:00,
2013-11-25 13:55:00,29.2,27.4,30.12,SW,234,13.0,13.0,93,0.00,,,0.00,Wunderground v.1.15,2013-11-25 19:55:00,
2013-11-25 14:00:00,29.3,27.5,30.12,WSW,238,12.0,13.0,93,0.00,,,0.00,Wunderground v.1.15,2013-11-25 20:00:00,
2013-11-25 14:10:00,29.7,27.9,30.12,SW,223,11.0,11.0,93,0.00,,,0.00,Wunderground v.1.15,2013-11-25 20:10:00,
2013-11-25 14:15:00,29.9,27.9,30.12,SW,236,9.0,11.0,92,0.00,,,0.00,Wunderground v.1.15,2013-11-25 20:15:00,
2013-11-25 14:20:00,29.9,27.9,30.12,WSW,248,9.0,11.0,92,0.00,,,0.00,Wunderground v.1.15,2013-11-25 20:20:00,
2013-11-25 14:30:00,30.0,28.0,30.12,West,261,11.0,11.0,92,0.00,,,0.00,Wunderground v.1.15,2013-11-25 20:30:00,
2013-11-25 14:35:00,30.0,28.0,30.12,SW,217,10.0,13.0,92,0.00,,,0.00,Wunderground v.1.15,2013-11-25 20:35:00,
2013-11-25 14:40:00,30.1,28.1,30.12,SW,220,10.0,16.0,92,0.00,,,0.00,Wunderground v.1.15,2013-11-25 20:40:00,
2013-11-25 14:45:00,30.1,27.8,30.12,WSW,238,11.0,16.0,91,0.00,,,0.00,Wunderground v.1.15,2013-11-25 20:45:00,
2013-11-25 14:50:00,30.2,27.9,30.12,SW,221,10.0,12.0,91,0.00,,,0.00,Wunderground v.1.15,2013-11-25 20:50:00,
2013-11-25 15:00:00,30.5,28.2,30.12,WSW,241,9.0,12.0,91,0.00,,,0.00,Wunderground v.1.15,2013-11-25 21:00:00,
2013-11-25 15:05:00,30.6,28.3,30.12,SW,232,9.0,14.0,91,0.00,,,0.00,Wunderground v.1.15,2013-11-25 21:05:00,
2013-11-25 15:10:00,30.7,28.4,30.12,SSW,211,9.0,9.0,91,0.00,,,0.00,Wunderground v.1.15,2013-11-25 21:10:00,
2013-11-25 15:15:00,30.7,28.4,30.12,WSW,240,8.0,14.0,91,0.00,,,0.00,Wunderground v.1.15,2013-11-25 21:15:00,
2013-11-25 15:20:00,30.7,28.4,30.12,SW,229,8.0,8.0,91,0.00,,,0.00,Wunderground v.1.15,2013-11-25 21:20:00,
2013-11-25 15:25:00,30.7,28.4,30.12,SW,224,9.0,13.0,91,0.00,,,0.00,Wunderground v.1.15,2013-11-25 21:25:00,
2013-11-25 15:30:00,30.7,28.1,30.13,West,259,9.0,9.0,90,0.00,,,0.00,Wunderground v.1.15,2013-11-25 21:30:00,
2013-11-25 15:40:00,30.8,28.2,30.13,WNW,282,9.0,9.0,90,0.00,,,0.00,Wunderground v.1.15,2013-11-25 21:40:00,
2013-11-25 15:45:00,30.8,28.2,30.13,SW,233,8.0,9.0,90,0.00,,,0.00,Wunderground v.1.15,2013-11-25 21:45:00,
2013-11-25 15:50:00,30.9,28.3,30.13,SSW,199,8.0,8.0,90,0.00,,,0.00,Wunderground v.1.15,2013-11-25 21:50:00,
2013-11-25 15:55:00,30.8,28.2,30.14,SW,224,7.0,8.0,90,0.00,,,0.00,Wunderground v.1.15,2013-11-25 21:55:00,
2013-11-25 16:05:00,30.7,28.1,30.13,WSW,238,7.0,8.0,90,0.00,,,0.00,Wunderground v.1.15,2013-11-25 22:05:00,
2013-11-25 16:10:00,30.7,28.1,30.13,SW,228,8.0,8.0,90,0.00,,,0.00,Wunderground v.1.15,2013-11-25 22:10:00,
2013-11-25 16:15:00,30.6,28.0,30.13,SW,221,7.0,8.0,90,0.00,,,0.00,Wunderground v.1.15,2013-11-25 22:15:00,
2013-11-25 16:20:00,30.5,27.9,30.14,SW,230,5.0,5.0,90,0.00,,,0.00,Wunderground v.1.15,2013-11-25 22:20:00,
2013-11-25 16:25:00,30.5,27.9,30.13,WSW,238,5.0,5.0,90,0.00,,,0.00,Wunderground v.1.15,2013-11-25 22:25:00,
2013-11-25 16:30:00,30.5,27.9,30.13,SSW,213,6.0,6.0,90,0.00,,,0.00,Wunderground v.1.15,2013-11-25 22:30:00,
2013-11-25 16:40:00,30.5,27.9,30.13,SW,234,5.0,5.0,90,0.00,,,0.00,Wunderground v.1.15,2013-11-25 22:40:00,
2013-11-25 16:45:00,30.6,28.0,30.13,WSW,255,5.0,7.0,90,0.00,,,0.00,Wunderground v.1.15,2013-11-25 22:45:00,
2013-11-25 16:50:00,30.6,28.0,30.13,SSW,211,6.0,6.0,90,0.00,,,0.00,Wunderground v.1.15,2013-11-25 22:50:00,
2013-11-25 17:00:00,30.7,28.1,30.13,SW,224,5.0,5.0,90,0.00,,,0.00,Wunderground v.1.15,2013-11-25 23:00:00,
2013-11-25 17:05:00,30.7,28.1,30.13,South,188,5.0,5.0,90,0.00,,,0.00,Wunderground v.1.15,2013-11-25 23:05:00,
2013-11-25 17:10:00,30.8,28.2,30.13,SW,220,5.0,6.0,90,0.00,,,0.00,Wunderground v.1.15,2013-11-25 23:10:00,
2013-11-25 17:15:00,30.8,28.2,30.13,South,174,6.0,6.0,90,0.00,,,0.00,Wunderground v.1.15,2013-11-25 23:15:00,
2013-11-25 17:20:00,30.9,28.3,30.14,SSW,200,6.0,6.0,90,0.00,,,0.00,Wunderground v.1.15,2013-11-25 23:20:00,
2013-11-25 17:25:00,30.9,28.3,30.14,SW,225,6.0,6.0,90,0.00,,,0.00,Wunderground v.1.15,2013-11-25 23:25:00,
2013-11-25 17:35:00,31.1,28.5,30.14,SW,232,6.0,7.0,90,0.00,,,0.00,Wunderground v.1.15,2013-11-25 23:35:00,
2013-11-25 17:40:00,31.1,28.5,30.14,SW,219,6.0,6.0,90,0.00,,,0.00,Wunderground v.1.15,2013-11-25 23:40:00,
2013-11-25 17:45:00,31.2,28.3,30.14,SW,219,7.0,9.0,89,0.00,,,0.00,Wunderground v.1.15,2013-11-25 23:45:00,
2013-11-25 17:55:00,31.2,28.3,30.14,WSW,240,7.0,7.0,89,0.00,,,0.00,Wunderground v.1.15,2013-11-25 23:55:00,
2013-11-25 18:00:00,31.3,28.2,30.14,SSW,207,6.0,6.0,88,0.00,,,0.00,Wunderground v.1.15,2013-11-26 00:00:00,
2013-11-25 18:05:00,31.4,28.3,30.14,WSW,250,7.0,7.0,88,0.00,,,0.00,Wunderground v.1.15,2013-11-26 00:05:00,
2013-11-25 18:10:00,31.4,28.3,30.14,WSW,241,7.0,8.0,88,0.00,,,0.00,Wunderground v.1.15,2013-11-26 00:10:00,
2013-11-25 18:20:00,31.4,28.3,30.14,SW,224,7.0,8.0,88,0.00,,,0.00,Wunderground v.1.15,2013-11-26 00:20:00,
2013-11-25 18:25:00,31.5,28.4,30.14,WSW,246,6.0,8.0,88,0.00,,,0.00,Wunderground v.1.15,2013-11-26 00:25:00,
2013-11-25 18:30:00,31.5,28.4,30.14,SW,231,6.0,6.0,88,0.00,,,0.00,Wunderground v.1.15,2013-11-26 00:30:00,
2013-11-25 18:40:00,31.5,28.1,30.15,SW,223,5.0,6.0,87,0.00,,,0.00,Wunderground v.1.15,2013-11-26 00:40:00,
2013-11-25 18:45:00,31.5,28.1,30.15,WSW,250,5.0,6.0,87,0.00,,,0.00,Wunderground v.1.15,2013-11-26 00:45:00,
2013-11-25 18:50:00,31.5,28.1,30.15,WSW,243,5.0,6.0,87,0.00,,,0.00,Wunderground v.1.15,2013-11-26 00:50:00,
2013-11-25 18:55:00,31.6,27.9,30.15,WSW,252,5.0,6.0,86,0.00,,,0.00,Wunderground v.1.15,2013-11-26 00:55:00,
2013-11-25 19:00:00,31.5,27.8,30.15,SW,221,5.0,5.0,86,0.00,,,0.00,Wunderground v.1.15,2013-11-26 01:00:00,
2013-11-25 19:05:00,31.5,28.1,30.15,West,267,5.0,5.0,87,0.00,,,0.00,Wunderground v.1.15,2013-11-26 01:05:00,
2013-11-25 19:15:00,31.4,28.0,30.15,SW,224,4.0,5.0,87,0.00,,,0.00,Wunderground v.1.15,2013-11-26 01:15:00,
2013-11-25 19:20:00,31.4,28.0,30.15,SW,218,5.0,6.0,87,0.00,,,0.00,Wunderground v.1.15,2013-11-26 01:20:00,
2013-11-25 19:25:00,31.2,27.8,30.15,WSW,242,5.0,6.0,87,0.00,,,0.00,Wunderground v.1.15,2013-11-26 01:25:00,
2013-11-25 19:30:00,31.2,27.8,30.15,SW,229,4.0,5.0,87,0.00,,,0.00,Wunderground v.1.15,2013-11-26 01:30:00,
2013-11-25 19:40:00,31.1,27.7,30.15,SW,228,4.0,5.0,87,0.00,,,0.00,Wunderground v.1.15,2013-11-26 01:40:00,
2013-11-25 19:45:00,31.0,27.6,30.15,WSW,242,5.0,5.0,87,0.00,,,0.00,Wunderground v.1.15,2013-11-26 01:45:00,
2013-11-25 19:50:00,30.9,27.5,30.15,SW,228,4.0,4.0,87,0.00,,,0.00,Wunderground v.1.15,2013-11-26 01:50:00,
2013-11-25 19:55:00,30.6,27.2,30.15,SSW,210,4.0,4.0,87,0.00,,,0.00,Wunderground v.1.15,2013-11-26 01:55:00,
2013-11-25 20:05:00,30.2,26.8,30.15,SSW,206,4.0,4.0,87,0.00,,,0.00,Wunderground v.1.15,2013-11-26 02:05:00,
2013-11-25 20:10:00,29.9,26.5,30.15,SSW,209,4.0,4.0,87,0.00,,,0.00,Wunderground v.1.15,2013-11-26 02:10:00,
2013-11-25 20:15:00,29.6,26.5,30.15,SSW,212,4.0,4.0,88,0.00,,,0.00,Wunderground v.1.15,2013-11-26 02:15:00,
2013-11-25 20:25:00,29.2,26.1,30.15,SW,217,4.0,5.0,88,0.00,,,0.00,Wunderground v.1.15,2013-11-26 02:25:00,
2013-11-25 20:30:00,28.9,25.8,30.15,SSW,213,4.0,5.0,88,0.00,,,0.00,Wunderground v.1.15,2013-11-26 02:30:00,
2013-11-25 20:35:00,28.7,25.6,30.15,SSW,213,5.0,5.0,88,0.00,,,0.00,Wunderground v.1.15,2013-11-26 02:35:00,
2013-11-25 20:40:00,28.6,25.8,30.15,SSW,209,5.0,5.0,89,0.00,,,0.00,Wunderground v.1.15,2013-11-26 02:40:00,
2013-11-25 20:45:00,28.6,25.8,30.15,SW,214,5.0,5.0,89,0.00,,,0.00,Wunderground v.1.15,2013-11-26 02:45:00,
2013-11-25 20:55:00,28.7,25.9,30.15,SSW,208,5.0,5.0,89,0.00,,,0.00,Wunderground v.1.15,2013-11-26 02:55:00,
2013-11-25 21:00:00,28.7,25.9,30.15,SW,221,5.0,5.0,89,0.00,,,0.00,Wunderground v.1.15,2013-11-26 03:00:00,
2013-11-25 21:05:00,28.8,26.2,30.15,SW,222,5.0,8.0,90,0.00,,,0.00,Wunderground v.1.15,2013-11-26 03:05:00,
2013-11-25 21:10:00,28.9,26.3,30.15,SSW,213,5.0,5.0,90,0.00,,,0.00,Wunderground v.1.15,2013-11-26 03:10:00,
2013-11-25 21:15:00,29.0,26.4,30.15,SW,229,5.0,5.0,90,0.00,,,0.00,Wunderground v.1.15,2013-11-26 03:15:00,
2013-11-25 21:20:00,29.0,26.4,30.15,SW,221,5.0,5.0,90,0.00,,,0.00,Wunderground v.1.15,2013-11-26 03:20:00,
2013-11-25 21:30:00,29.0,26.4,30.15,SW,219,5.0,6.0,90,0.00,,,0.00,Wunderground v.1.15,2013-11-26 03:30:00,
2013-11-25 21:40:00,29.4,26.8,30.14,SW,214,5.0,6.0,90,0.00,,,0.00,Wunderground v.1.15,2013-11-26 03:40:00,
2013-11-25 21:45:00,29.6,27.0,30.14,SSW,202,5.0,6.0,90,0.00,,,0.00,Wunderground v.1.15,2013-11-26 03:45:00,
2013-11-25 21:50:00,29.7,27.1,30.14,SSW,213,5.0,5.0,90,0.00,,,0.00,Wunderground v.1.15,2013-11-26 03:50:00,
2013-11-25 22:00:00,29.8,27.2,30.14,SW,215,6.0,7.0,90,0.00,,,0.00,Wunderground v.1.15,2013-11-26 04:00:00,
2013-11-25 22:05:00,30.0,27.4,30.14,SSW,213,6.0,7.0,90,0.00,,,0.00,Wunderground v.1.15,2013-11-26 04:05:00,
2013-11-25 22:10:00,30.1,27.3,30.14,SW,214,6.0,9.0,89,0.00,,,0.00,Wunderground v.1.15,2013-11-26 04:10:00,
2013-11-25 22:15:00,30.1,27.3,30.14,SW,232,6.0,9.0,89,0.00,,,0.00,Wunderground v.1.15,2013-11-26 04:15:00,
2013-11-25 22:20:00,30.2,27.3,30.14,SW,236,7.0,7.0,89,0.00,,,0.00,Wunderground v.1.15,2013-11-26 04:20:00,
2013-11-25 22:25:00,30.2,27.3,30.14,SW,234,6.0,7.0,89,0.00,,,0.00,Wunderground v.1.15,2013-11-26 04:25:00,
2013-11-25 22:35:00,30.4,27.5,30.14,WSW,244,6.0,6.0,89,0.00,,,0.00,Wunderground v.1.15,2013-11-26 04:35:00,
2013-11-25 22:40:00,30.4,27.5,30.14,WSW,250,5.0,5.0,89,0.00,,,0.00,Wunderground v.1.15,2013-11-26 04:40:00,
2013-11-25 22:45:00,30.4,27.5,30.14,SW,228,4.0,5.0,89,0.00,,,0.00,Wunderground v.1.15,2013-11-26 04:45:00,
2013-11-25 22:50:00,30.3,27.4,30.13,SW,235,4.0,4.0,89,0.00,,,0.00,Wunderground v.1.15,2013-11-26 04:50:00,
2013-11-25 23:00:00,30.3,27.4,30.13,SW,221,4.0,4.0,89,0.00,,,0.00,Wunderground v.1.15,2013-11-26 05:00:00,
2013-11-25 23:05:00,30.2,27.3,30.13,SW,225,4.0,4.0,89,0.00,,,0.00,Wunderground v.1.15,2013-11-26 05:05:00,
2013-11-25 23:15:00,30.2,27.3,30.12,WSW,255,4.0,4.0,89,0.00,,,0.00,Wunderground v.1.15,2013-11-26 05:15:00,
2013-11-25 23:20:00,30.2,27.3,30.12,SW,224,3.0,3.0,89,0.00,,,0.00,Wunderground v.1.15,2013-11-26 05:20:00,
2013-11-25 23:25:00,30.1,27.3,30.12,SW,223,4.0,5.0,89,0.00,,,0.00,Wunderground v.1.15,2013-11-26 05:25:00,
2013-11-25 23:30:00,29.9,26.8,30.12,SW,230,4.0,4.0,88,0.00,,,0.00,Wunderground v.1.15,2013-11-26 05:30:00,
2013-11-25 23:35:00,29.7,26.6,30.11,SW,236,4.0,4.0,88,0.00,,,0.00,Wunderground v.1.15,2013-11-26 05:35:00,
2013-11-25 23:40:00,29.4,26.6,30.11,SW,232,4.0,4.0,89,0.00,,,0.00,Wunderground v.1.15,2013-11-26 05:40:00,
2013-11-25 23:45:00,29.0,26.2,30.11,SW,232,4.0,4.0,89,0.00,,,0.00,Wunderground v.1.15,2013-11-26 05:45:00,
2013-11-25 23:50:00,28.8,26.2,30.11,SW,234,4.0,4.0,90,0.00,,,0.00,Wunderground v.1.15,2013-11-26 05:50:00,
2013-11-25 23:55:00,28.7,26.1,30.10,WSW,239,3.0,4.0,90,0.00,,,0.00,Wunderground v.1.15,2013-11-26 05:55:00,